Location: LDNL
(36.4545°S, 141.6685°E)
Time: 13:03:21
(UTC+10:00)

Vanguard 3 - Pass Details

Date: 31 January 2022
Orbit: 508 x 3258 km, 33.3° (Epoch: 25 May)

Event Time Altitude Azimuth Distance (km) Brightness Sun altitude
Rises 05:32:29 0° 259° (W) 5,300 10.9 -14.2°
Reaches altitude 10° 05:35:35 10° 264° (W) 4,618 10.5 -13.7°
Maximum altitude 05:49:00 52° 334° (NNW) 3,359 9.9 -11.4°
Drops below altitude 10° 06:07:37 10° 43° (NE) 6,191 11.8 -8.2°
Sets 06:12:37 0° 47° (NE) 7,155 12.2 -7.3°
